Weather History for KCMD - February, 2014

Change the Weather History Date:

Wednesday, February 12, 2014

  Actual Average Record
Temperature  
Mean Temperature 32 °F -  
Max Temperature 33 °F - - ()
Min Temperature 30 °F - - ()
Degree Days  
Heating Degree Days 34    
Moisture  
Dew Point 31 °F    
Average Humidity 96    
Maximum Humidity 99    
Minimum Humidity 90    
Precipitation  
Precipitation 0.42 in - - ()
Sea Level Pressure  
Sea Level Pressure 30.00 in    
Wind  
Wind Speed 5 mph (ENE)    
Max Wind Speed 12 mph    
Max Gust Speed 21 mph    
Visibility 3 miles    
Events Rain , Snow    
Averages and records for this station are not official NWS values.
T = Trace of Precipitation, MM = Missing Value Source: NWS Daily Summary

Daily Weather History Graph

Daily Weather History Graph

Search for Another Location

Airport or City:

Trip Planner

Search our weather history database for the weather conditions in past years. The results will help you decide how hot, cold, wet, or windy it might be!

Date:

Astronomy

Feb. 12, 2014 Rise Set
Actual Time 6:35 AM CST 5:28 PM CST
Civil Twilight 6:09 AM CST 5:54 PM CST
Nautical Twilight 5:40 AM CST 6:23 PM CST
Astronomical Twilight 5:10 AM CST 6:52 PM CST
Moon 3:43 PM CST (2/12) 4:49 AM CST (2/12)
Length of Visible Light 11h 44m
Length of Day
10h 52m
Waxing Gibbous, 95% of the Moon is Illuminated
Feb 12
Waxing Gibbous
Feb 14
Full
Feb 22
Last Quarter
Mar 1
New
Mar 8
First Quarter

Hourly Weather History & Observations

Time (CST) Temp. Windchill Dew Point Humidity Pressure Visibility Wind Dir Wind Speed Gust Speed Precip Events Conditions
12:15 AM 33.8 °F 28.6 °F 31.3 °F 90% 30.14 in 5.0 mi ENE 5.8 mph - N/A Rain Light Rain
12:35 AM 33.4 °F 28.1 °F 31.8 °F 94% 30.13 in 5.0 mi ENE 5.8 mph - 0.01 in   Drizzle
12:55 AM 33.4 °F 28.1 °F 32.0 °F 94% 30.13 in 5.0 mi ENE 5.8 mph - 0.01 in   Light Drizzle
1:15 AM 33.8 °F 27.7 °F 32.0 °F 93% 30.14 in 5.0 mi NE 6.9 mph - N/A Rain Light Rain
1:35 AM 33.6 °F 29.4 °F 32.0 °F 94% 30.14 in 3.0 mi NE 4.6 mph - 0.02 in Rain Rain
1:55 AM 33.4 °F 29.1 °F 32.0 °F 94% 30.14 in 3.0 mi ENE 4.6 mph - 0.04 in Rain Rain
2:15 AM 33.4 °F 30.4 °F 32.2 °F 95% 30.13 in 3.0 mi ENE 3.5 mph - 0.01 in Rain Light Rain
2:35 AM 33.3 °F 27.9 °F 32.2 °F 96% 30.13 in 3.0 mi NE 5.8 mph - 0.02 in Rain Light Rain
2:55 AM 33.3 °F 26.4 °F 32.0 °F 95% 30.12 in 4.0 mi NE 8.1 mph - 0.04 in Rain Rain
3:15 AM 33.1 °F 27.7 °F 32.0 °F 96% 30.11 in 4.0 mi ENE 5.8 mph - 0.01 in Rain Light Rain
3:35 AM 33.1 °F 27.7 °F 32.0 °F 96% 30.11 in 5.0 mi NE 5.8 mph - 0.02 in Rain Light Rain
3:55 AM 33.1 °F 26.1 °F 32.0 °F 96% 30.10 in 5.0 mi ENE 8.1 mph - 0.03 in   Drizzle
4:15 AM 33.1 °F 25.5 °F 32.0 °F 96% 30.10 in 5.0 mi East 9.2 mph - 0.01 in Rain Light Rain
4:35 AM 33.1 °F 26.1 °F 32.0 °F 96% 30.09 in 3.0 mi East 8.1 mph - 0.02 in Rain Light Rain
4:55 AM 33.1 °F 26.1 °F 32.0 °F 96% 30.08 in 3.0 mi East 8.1 mph 17.3 mph 0.04 in Rain Light Rain
5:15 AM 33.1 °F 26.1 °F 32.0 °F 96% 30.06 in 4.0 mi East 8.1 mph - 0.01 in Rain Light Rain
5:35 AM 33.1 °F 25.5 °F 32.0 °F 96% 30.07 in 3.0 mi East 9.2 mph 17.3 mph 0.02 in Rain Light Rain
5:55 AM 32.9 °F 24.1 °F 32.0 °F 96% 30.08 in 2.0 mi East 11.5 mph 20.7 mph 0.05 in Rain Light Rain
6:15 AM 32.7 °F 25.7 °F 32.0 °F 97% 30.08 in 3.0 mi East 8.1 mph - 0.01 in Rain Light Rain
6:35 AM 32.5 °F 25.5 °F 31.8 °F 97% 30.08 in 4.0 mi East 8.1 mph - 0.03 in   Overcast
6:55 AM 32.5 °F 24.8 °F 31.8 °F 97% 30.08 in 4.0 mi East 9.2 mph - 0.04 in Rain Light Rain
7:15 AM 32.5 °F 28.1 °F 31.5 °F 96% 30.08 in 5.0 mi East 4.6 mph - N/A   Overcast
7:35 AM 32.4 °F 26.9 °F 31.1 °F 95% 30.08 in 5.0 mi ENE 5.8 mph - 0.01 in   Overcast
7:55 AM 32.2 °F 25.8 °F 31.5 °F 97% 30.08 in 3.0 mi East 6.9 mph - 0.01 in   Overcast
8:15 AM 32.2 °F 26.7 °F 31.5 °F 97% 30.07 in 4.0 mi East 5.8 mph - 0.01 in   Overcast
8:35 AM 32.2 °F 26.7 °F 31.3 °F 96% 30.07 in 4.0 mi ENE 5.8 mph - 0.02 in   Overcast
8:55 AM 32.4 °F 26.9 °F 31.5 °F 96% 30.07 in 1.8 mi East 5.8 mph - 0.03 in   Overcast
9:15 AM 32.4 °F 26.0 °F 31.6 °F 97% 30.07 in 2.0 mi East 6.9 mph - 0.01 in   Overcast
9:35 AM 32.5 °F 26.2 °F 31.6 °F 96% 30.06 in 3.0 mi East 6.9 mph - 0.02 in Rain Light Rain
9:55 AM 32.5 °F 28.1 °F 31.8 °F 97% 30.06 in 3.0 mi ENE 4.6 mph - 0.03 in Rain Light Rain
10:35 AM 32.7 °F 26.4 °F 32.0 °F 97% 30.06 in 2.5 mi ENE 6.9 mph - 0.02 in Rain Rain
10:55 AM 32.5 °F 26.2 °F 31.8 °F 97% 30.05 in 3.0 mi ENE 6.9 mph - 0.03 in Rain Rain
11:15 AM 32.4 °F 25.3 °F 31.6 °F 97% 30.04 in 3.0 mi ENE 8.1 mph - N/A Rain Light Rain
11:35 AM 32.4 °F 26.0 °F 31.6 °F 97% 30.03 in 3.0 mi East 6.9 mph - 0.01 in Rain Light Rain
11:55 AM 32.4 °F 26.0 °F 31.5 °F 96% 30.02 in 3.0 mi ENE 6.9 mph - 0.01 in Rain Light Rain
12:15 PM 32.4 °F 25.3 °F 31.5 °F 96% 30.00 in 4.0 mi East 8.1 mph - 0.01 in Rain Rain
12:35 PM 32.5 °F 26.2 °F 31.5 °F 96% 29.98 in 4.0 mi ENE 6.9 mph - 0.01 in   Light Drizzle
12:55 PM 32.4 °F 25.3 °F 31.3 °F 96% 29.96 in 7.0 mi ENE 8.1 mph - 0.01 in   Light Drizzle
1:15 PM 32.0 °F 24.8 °F 30.6 °F 94% 29.96 in 7.0 mi ENE 8.1 mph - N/A   Overcast
1:35 PM 32.0 °F 24.8 °F 30.2 °F 93% 29.95 in 10.0 mi East 8.1 mph - N/A   Overcast
1:55 PM 32.0 °F 26.4 °F 30.2 °F 93% 29.94 in 7.0 mi ENE 5.8 mph - N/A   Overcast
2:15 PM 32.0 °F 24.8 °F 30.2 °F 93% 29.94 in 5.0 mi NE 8.1 mph - 0.01 in   Overcast
2:35 PM 31.6 °F 24.4 °F 30.0 °F 94% 29.93 in 3.0 mi ENE 8.1 mph - 0.01 in   Overcast
2:55 PM 31.8 °F 25.4 °F 30.0 °F 93% 29.93 in 2.5 mi NE 6.9 mph - 0.03 in   Overcast
3:15 PM 31.8 °F 24.6 °F 30.4 °F 94% 29.92 in 2.5 mi ENE 8.1 mph - 0.01 in   Overcast
3:35 PM 31.6 °F 26.0 °F 30.2 °F 94% 29.92 in 3.0 mi East 5.8 mph - 0.02 in   Overcast
3:55 PM 31.5 °F 24.2 °F 30.0 °F 94% 29.92 in 4.0 mi ENE 8.1 mph - 0.02 in Snow Light Snow
4:15 PM 31.5 °F 26.8 °F 29.8 °F 94% 29.92 in 1.2 mi ENE 4.6 mph - N/A Snow Light Snow
4:35 PM 31.1 °F - 30.0 °F 96% 29.92 in 0.8 mi Calm Calm - N/A Snow Light Snow
4:55 PM 31.1 °F - 30.2 °F 96% 29.93 in 0.8 mi Calm Calm - N/A Snow Light Snow
5:15 PM 31.1 °F - 30.2 °F 96% 29.93 in 0.8 mi Calm Calm - N/A Snow Light Snow
5:35 PM 31.1 °F - 30.2 °F 96% 29.94 in 2.0 mi Calm Calm - N/A Snow Light Snow
5:55 PM 30.9 °F - 30.2 °F 97% 29.93 in 1.2 mi Calm Calm - N/A Snow Snow
6:15 PM 30.9 °F - 30.2 °F 97% 29.93 in 2.0 mi Calm Calm - N/A Snow Light Snow
6:35 PM 31.1 °F - 30.2 °F 96% 29.92 in 2.0 mi Calm Calm - N/A Snow Light Snow
6:55 PM 30.9 °F - 30.2 °F 97% 29.93 in 2.0 mi Calm Calm - N/A Snow Light Snow
7:15 PM 30.9 °F - 30.2 °F 97% 29.92 in 1.2 mi Calm Calm - N/A Snow Light Snow
7:35 PM 30.9 °F - 30.2 °F 97% 29.92 in 0.8 mi Calm Calm - N/A Snow Snow
7:55 PM 30.9 °F - 30.4 °F 98% 29.92 in 1.0 mi Calm Calm - N/A Snow Snow
8:15 PM 30.9 °F - 30.6 °F 99% 29.92 in 1.2 mi Calm Calm - N/A Snow Light Snow
8:35 PM 31.1 °F - 30.7 °F 99% 29.91 in 1.0 mi Calm Calm - N/A Snow Snow
8:55 PM 31.1 °F - 30.7 °F 99% 29.91 in 1.2 mi Calm Calm - N/A Snow Light Snow
9:15 PM 31.1 °F - 30.7 °F 99% 29.91 in 1.0 mi Calm Calm - N/A Snow Snow
9:35 PM 31.1 °F - 30.7 °F 99% 29.91 in 1.0 mi Calm Calm - N/A Snow Snow
9:55 PM 31.1 °F - 30.7 °F 99% 29.90 in 1.0 mi Calm Calm - N/A Snow Snow
10:15 PM 31.1 °F - 30.9 °F 99% 29.89 in 1.0 mi Calm Calm - N/A Snow Snow
10:35 PM 31.3 °F - 30.9 °F 99% 29.89 in 1.2 mi Calm Calm - N/A Snow Light Snow
10:55 PM 31.5 °F 28.1 °F 31.1 °F 99% 29.88 in 1.2 mi NW 3.5 mph - N/A Snow Light Snow
11:15 PM 31.5 °F - 31.1 °F 99% 29.88 in 1.5 mi Calm Calm - N/A Snow Light Snow
11:35 PM 31.5 °F - 31.1 °F 99% 29.88 in 1.8 mi Calm Calm - N/A Snow Light Snow
11:55 PM 31.5 °F 28.1 °F 31.1 °F 99% 29.88 in 2.0 mi NW 3.5 mph - N/A Snow Light Snow